Terminal Aerodrome Forecast
Issued by NWS Key West, FL

Home | Current Version | Previous Version | Text Only | Print | Product List | Glossary On
Versions: 1 2 3 4 5 6 7 8 9 10 11 12 13 14 15 16 17 18 19 20 21 22 23
000
FTUS42 KKEY 231454 AAA
TAFEYW
TAF AMD
KEYW 231454Z 2315/2412 11007KT P6SM FEW022 SCT150
     FM232000 10006KT P6SM VCTS SCT025CB SCT050 BKN150
     FM240200 11005KT P6SM FEW015 BKN200=

USA.gov is the U.S. government's official web portal to all federal, state and local government web resources and services.